[[{"header":{"parameterUnit":"m.s-1","parameterCategory":1,"la1":30.2991,"la2":30.254,"lo1":-89.0895,"lo2":-89.0444,"dy":0.0017,"dx":0.0017,"nx":28,"ny":28,"refTime":"2023-09-03T09:00:00:Z","depth":0,"parameterNumber":2,"parameterNumberName":"U-component_of_WINDS"},"data":[0,0,0,0,0,0,0,0,0,0,0,0,0,0,0,0,0,0,0,0,0,0,0,0,0,0,0,0,0,0,0,0,0,0,0,0,0,0,0,0,0,0,0,0,0,0,0,0,0,0,0,0,0,0,0,0,0,0,-4.0487,-4.0487,0,-4.0479,-4.0478,-4.0478,-4.0428,-4.0426,-4.0425,-4.0424,-4.0416,-4.0417,-4.0418,0,0,0,0,0,0,0,0,0,0,0,0,0,-4.0462,-4.0462,-4.0487,-4.0487,-4.0487,-4.0479,-4.0478,-4.0478,-4.0428,-4.0426,-4.0425,-4.0423,-4.0416,-4.0417,-4.0418,0,0,0,0,0,0,0,0,0,0,0,0,0,-4.0465,-4.0463,-4.0487,-4.0461,-4.0458,-4.0479,-4.0478,-4.0478,-4.0428,-4.0426,-4.0425,-4.0423,-4.0416,-4.0417,-4.0418,-4.0464,0,0,-4.0423,-4.0423,0,0,0,0,0,0,0,0,-4.0465,-4.0466,-4.0465,-4.0463,-4.046,-4.0452,-4.0467,-4.0474,-4.0429,-4.044,-4.0424,-4.0422,-4.043,-4.043,-4.0432,-4.0464,-4.0463,-4.0423,-4.0424,-4.0424,-4.0425,0,0,0,0,0,0,0,-4.0465,-4.0466,-4.0484,-4.0465,-4.0462,-4.045,-4.0448,-4.0468,-4.0445,-4.0439,-4.0435,-4.0434,-4.0428,-4.0431,-4.0432,-4.0463,-4.0423,-4.0424,-4.0425,-4.0426,-4.0531,-4.0533,0,0,0,0,0,0,-4.0468,-4.0466,-4.0484,-4.0484,-4.0458,-4.0452,-4.045,-4.0457,-4.0445,-4.0441,-4.0436,-4.0432,-4.043,-4.043,-4.0431,-4.0483,-4.0424,-4.0426,-4.0426,-4.0529,-4.0532,-4.0534,0,0,0,0,0,0,-4.0468,-4.047,-4.0484,-4.0474,-4.0475,-4.0454,-4.0462,-4.0457,-4.046,-4.0443,-4.0439,-4.0443,-4.0428,-4.0429,-4.0456,-4.0482,-4.0426,-4.0428,-4.0527,-4.053,-4.0533,-4.0588,0,0,0,0,0,0,-4.0467,-4.047,-4.0487,-4.0475,-4.0476,-4.0509,-4.0464,-4.0459,-4.0463,-4.0457,-4.0448,-4.0445,-4.0427,-4.0454,-4.0458,-4.0483,-4.0429,-4.0525,-4.0528,-4.0532,-4.0583,-4.0592,-4.06,0,0,0,0,0,-4.0466,-4.0503,-4.0488,-4.049,-4.0496,-4.051,-4.0511,-4.0489,-4.0465,-4.0482,-4.0471,-4.0445,-4.048,-4.0457,-4.0461,-4.0487,-4.0523,-4.0527,-4.0532,-4.058,-4.0591,-4.06,0,0,0,0,0,0,-4.0518,-4.0501,-4.0484,-4.0517,-4.0516,-4.0502,-4.0522,-4.0501,-4.0506,-4.0501,-4.0474,-4.0473,-4.0503,-4.0498,-4.0474,-4.0531,-4.0497,-4.0502,-4.0532,-4.0542,-4.055,-4.055,-4.043,0,0,0,0,0,-4.0534,-4.0547,-4.0531,-4.0562,-4.0562,-4.0543,-4.0548,-4.0531,-4.0529,-4.0528,-4.0519,-4.0518,-4.0528,-4.0535,-4.0544,-4.0583,-4.0581,-4.0603,-4.0612,-4.0618,-4.0623,-4.0643,-4.0653,-4.0548,-4.0548,-4.0548,0,0,-4.0566,-4.0558,-4.0567,-4.0572,-4.0569,-4.0583,-4.0542,-4.0559,-4.0569,-4.053,-4.0554,-4.0548,-4.0545,-4.0579,-4.0593,-4.0575,-4.0651,-4.0624,-4.0629,-4.063,-4.0648,-4.0658,-4.0667,-4.0551,-4.0551,-4.055,0,0,-4.0631,-4.0626,-4.0651,-4.0649,-4.0645,-4.0632,-4.0638,-4.0628,-4.0622,-4.0646,-4.0617,-4.063,-4.0648,-4.0647,-4.0649,-4.0716,-4.0692,-4.0719,-4.0761,-4.0781,-4.0789,-4.0796,-4.0819,-4.0828,-4.0724,-4.0724,-4.0724,0,-4.0671,-4.069,-4.0667,-4.0686,-4.0689,-4.0655,-4.068,-4.068,-4.0679,-4.0682,-4.0662,-4.0685,-4.0681,-4.0713,-4.0729,-4.0733,-4.0739,-4.0719,-4.079,-4.0797,-4.0803,-4.0825,-4.0834,-4.0728,-4.0727,-4.0727,-4.0727,0,-4.074,-4.0754,-4.0775,-4.0775,-4.078,-4.0803,-4.0783,-4.0792,-4.0776,-4.0765,-4.079,-4.0784,-4.0791,-4.0798,-4.0782,-4.0828,-4.0817,-4.0795,-4.076,-4.0817,-4.0836,-4.0845,-4.0732,-4.0731,-4.073,-4.0729,0,0,-4.0835,-4.0822,-4.083,-4.083,-4.0823,-4.0834,-4.0856,-4.0862,-4.087,-4.0871,-4.0888,-4.0905,-4.0884,-4.0887,-4.0871,-4.0889,-4.0941,-4.0864,-4.0863,-4.0877,-4.0991,-4.1007,-4.1017,-4.0927,-4.0928,-4.0929,-4.0991,0,-4.0896,-4.093,-4.0911,-4.0948,-4.0961,-4.093,-4.0949,-4.0947,-4.0938,-4.0949,-4.0939,-4.0951,-4.0923,-4.0924,-4.0941,-4.0931,-4.0963,-4.0927,-4.0942,-4.0943,-4.0942,-4.1027,-4.1044,-4.1102,-4.0999,-4.1,-4.1001,0,-4.0972,-4.0976,-4.1014,-4.1006,-4.1011,-4.1027,-4.1032,-4.1042,-4.104,-4.1033,-4.1036,-4.1016,-4.1037,-4.1004,-4.1032,-4.1008,-4.1014,-4.101,-4.1012,-4.1011,-4.0974,-4.1027,-4.112,-4.1129,-4.1013,-4.1012,-4.1011,0,-4.1036,-4.1052,-4.1076,-4.1077,-4.1068,-4.1081,-4.1078,-4.1074,-4.1079,-4.1084,-4.1087,-4.1094,-4.1098,-4.1104,-4.1087,-4.1065,-4.1118,-4.1084,-4.1112,-4.1112,-4.1123,-4.1122,-4.1216,-4.1129,-4.1129,-4.1129,-4.1129,0,-4.1105,-4.113,-4.1105,-4.112,-4.1147,-4.1125,-4.1153,-4.1147,-4.1144,-4.1158,-4.1132,-4.1146,-4.1123,-4.1135,-4.1122,-4.1147,-4.1149,-4.1144,-4.1139,-4.1145,-4.1145,-4.1147,-4.1142,-4.1131,-4.1131,-4.113,-4.113,0,-4.1181,-4.1165,-4.119,-4.118,-4.1178,-4.1198,-4.119,-4.1204,-4.1194,-4.1212,-4.1215,-4.1199,-4.1212,-4.1196,-4.1207,-4.1198,-4.1232,-4.1223,-4.1233,-4.1229,-4.1258,-4.1255,-4.1355,-4.1367,-4.1274,-4.1275,-4.1275,0,-4.1225,-4.1243,-4.1235,-4.1242,-4.1241,-4.1253,-4.1258,-4.1238,-4.1245,-4.1244,-4.1259,-4.1269,-4.1276,-4.1298,-4.1288,-4.1296,-4.1286,-4.1321,-4.1287,-4.1292,-4.1285,-4.1284,-4.1285,-4.1327,-4.1328,-4.1329,-4.133,0,-4.1306,-4.1297,-4.1305,-4.1312,-4.1319,-4.1323,-4.1325,-4.1332,-4.1311,-4.132,-4.1332,-4.1338,-4.1349,-4.136,-4.1366,-4.1364,-4.1343,-4.1341,-4.1348,-4.1352,-4.1357,-4.1354,-4.125,-4.1338,-4.1337,-4.1337,-4.1336,-4.1336,-4.1366,-4.1381,-4.1377,-4.1388,-4.1387,-4.139,-4.1402,-4.1394,-4.1404,-4.1411,-4.1399,-4.1415,-4.1413,-4.1419,-4.1419,-4.1431,-4.1416,-4.1426,-4.1429,-4.1431,-4.1435,-4.1356,-4.1433,-4.1432,-4.1432,-4.1432,-4.1432,0,-4.1444,-4.1441,-4.145,-4.1454,-4.1462,-4.1443,-4.1444,-4.1453,-4.1466,-4.1467,-4.1474,-4.1489,-4.1499,-4.1491,-4.1499,-4.1511,-4.1502,-4.1514,-4.1512,-4.1512,-4.1448,-4.1441,-4.1521,-4.1521,-4.1521,-4.1521,-4.1521,-4.1521,-4.1485,-4.1509,-4.1501,-4.1524,-4.152,-4.1535,-4.1537,-4.154,-4.154,-4.1557,-4.1565,-4.156,-4.1557,-4.1565,-4.1574,-4.1571,-4.1575,-4.159,-4.1584,-4.1525,-4.1516,-4.1508,-4.15,-4.1592,-4.1592,-4.1646,-4.1647,-4.1647]},{"header":{"parameterUnit":"m.s-1","parameterCategory":1,"la1":30.2991,"la2":30.254,"lo1":-89.0895,"lo2":-89.0444,"dy":0.0017,"dx":0.0017,"nx":28,"ny":28,"refTime":"2023-09-03T09:00:00:Z","depth":0,"parameterNumber":3,"parameterNumberName":"V-component_of_WINDS"},"data":[0,0,0,0,0,0,0,0,0,0,0,0,0,0,0,0,0,0,0,0,0,0,0,0,0,0,0,0,0,0,0,0,0,0,0,0,0,0,0,0,0,0,0,0,0,0,0,0,0,0,0,0,0,0,0,0,0,0,4.1506,4.1505,0,4.143,4.1429,4.1428,4.1377,4.1376,4.1376,4.1376,4.1292,4.129,4.1288,0,0,0,0,0,0,0,0,0,0,0,0,0,4.1601,4.16,4.1506,4.1505,4.1504,4.143,4.1429,4.1428,4.1377,4.1376,4.1376,4.1376,4.1292,4.129,4.1288,0,0,0,0,0,0,0,0,0,0,0,0,0,4.1546,4.1599,4.1506,4.147,4.1466,4.143,4.1429,4.1428,4.1377,4.1376,4.1376,4.1375,4.1293,4.129,4.1287,4.128,0,0,4.1279,4.1277,0,0,0,0,0,0,0,0,4.1549,4.1542,4.1476,4.1472,4.1468,4.1412,4.1432,4.1378,4.1377,4.141,4.1376,4.1375,4.1332,4.1326,4.1312,4.1276,4.1273,4.1278,4.1277,4.1275,4.1275,0,0,0,0,0,0,0,4.1553,4.1545,4.1475,4.1475,4.147,4.1455,4.1447,4.1421,4.1375,4.1407,4.1404,4.1396,4.1329,4.1315,4.131,4.1271,4.1278,4.1276,4.1274,4.1273,4.1225,4.1226,0,0,0,0,0,0,4.1563,4.1549,4.1478,4.1473,4.1508,4.1454,4.1445,4.1431,4.1375,4.1366,4.1396,4.1394,4.1321,4.1313,4.1307,4.1295,4.1275,4.1273,4.1271,4.1225,4.1225,4.1226,0,0,0,0,0,0,4.1566,4.1557,4.1481,4.151,4.1499,4.1453,4.1438,4.1429,4.1415,4.1367,4.1357,4.1391,4.132,4.1311,4.1288,4.1291,4.1271,4.1269,4.1224,4.1225,4.1226,4.127,0,0,0,0,0,0,4.1568,4.1559,4.1556,4.151,4.1498,4.1465,4.1438,4.1428,4.1411,4.1407,4.1359,4.135,4.1319,4.1292,4.1285,4.1287,4.1267,4.1224,4.1225,4.1225,4.1268,4.1272,4.1276,0,0,0,0,0,4.1572,4.157,4.1557,4.1548,4.1495,4.1465,4.1458,4.1423,4.1412,4.1408,4.1377,4.1352,4.1292,4.129,4.1281,4.1282,4.1223,4.1224,4.1225,4.1266,4.1271,4.1276,0,0,0,0,0,0,4.1615,4.1564,4.1548,4.1532,4.1504,4.1456,4.1451,4.1429,4.1402,4.1399,4.1355,4.1345,4.1326,4.1302,4.1301,4.1273,4.1255,4.1254,4.1289,4.1293,4.1297,4.1302,4.1264,0,0,0,0,0,4.1624,4.1606,4.1561,4.1551,4.1538,4.1497,4.1483,4.1459,4.1427,4.1414,4.1381,4.135,4.1324,4.1307,4.1281,4.1265,4.1253,4.1261,4.1265,4.1269,4.1268,4.1258,4.1261,4.1229,4.1229,4.1229,0,0,4.1639,4.1609,4.1599,4.1559,4.1534,4.1515,4.1487,4.1468,4.1453,4.141,4.1387,4.1362,4.1324,4.1305,4.1294,4.1284,4.1274,4.127,4.1273,4.127,4.1259,4.1262,4.1265,4.123,4.123,4.123,0,0,4.1657,4.1633,4.1622,4.1599,4.1563,4.1537,4.1534,4.1491,4.1474,4.145,4.1418,4.1399,4.1355,4.1329,4.1311,4.1322,4.1297,4.1314,4.1333,4.1324,4.1326,4.1328,4.1332,4.1333,4.1314,4.1314,4.1314,0,4.168,4.1652,4.1619,4.1602,4.1585,4.1549,4.1537,4.1515,4.1471,4.146,4.1449,4.1395,4.1366,4.134,4.1344,4.133,4.1325,4.1319,4.1329,4.1331,4.1332,4.1335,4.1336,4.1316,4.1316,4.1316,4.1316,0,4.1682,4.1664,4.1659,4.1621,4.1603,4.1588,4.1551,4.1537,4.1516,4.149,4.1466,4.1431,4.1397,4.139,4.1367,4.1361,4.1355,4.1338,4.1319,4.1338,4.134,4.134,4.132,4.1319,4.1318,4.1318,0,0,4.1724,4.1669,4.1668,4.165,4.1609,4.1593,4.1577,4.1546,4.1534,4.1506,4.149,4.1456,4.144,4.1418,4.1393,4.1385,4.1396,4.1368,4.1367,4.1374,4.1385,4.1398,4.14,4.138,4.138,4.138,4.1388,0,4.1735,4.1707,4.1677,4.1658,4.164,4.1606,4.1592,4.1564,4.154,4.152,4.1492,4.1468,4.1449,4.1436,4.1427,4.1396,4.1397,4.1395,4.1363,4.1362,4.1373,4.1401,4.1414,4.1423,4.1389,4.1389,4.1389,0,4.1744,4.172,4.1701,4.1662,4.1653,4.1641,4.1611,4.1593,4.156,4.1543,4.1521,4.1495,4.1475,4.146,4.1431,4.143,4.1415,4.1399,4.1398,4.1392,4.1376,4.1395,4.1426,4.1427,4.139,4.139,4.139,0,4.1776,4.1738,4.1722,4.1708,4.1663,4.1655,4.1635,4.1603,4.1587,4.156,4.1549,4.1519,4.1503,4.148,4.1446,4.1438,4.142,4.1402,4.1404,4.1405,4.14,4.1401,4.1428,4.1393,4.1393,4.1393,4.1393,0,4.1791,4.178,4.1736,4.1725,4.1712,4.1677,4.1664,4.1641,4.1613,4.1596,4.1565,4.155,4.1507,4.1486,4.1459,4.1439,4.1431,4.1416,4.1409,4.1418,4.142,4.1406,4.1404,4.1393,4.1393,4.1393,4.1393,0,4.1823,4.1793,4.1773,4.1733,4.1723,4.1714,4.1679,4.1667,4.1642,4.1622,4.1615,4.1575,4.1549,4.1513,4.1475,4.1457,4.144,4.143,4.1452,4.1447,4.1451,4.1451,4.147,4.147,4.1436,4.1437,4.1437,0,4.1834,4.1826,4.1786,4.1774,4.1756,4.1736,4.172,4.1686,4.1671,4.1634,4.1626,4.1599,4.1575,4.1534,4.1501,4.1472,4.1459,4.1468,4.1454,4.1464,4.1458,4.1459,4.1457,4.1471,4.1471,4.1472,4.1472,0,4.1857,4.1844,4.1823,4.1798,4.178,4.1758,4.1734,4.1725,4.1686,4.1669,4.1644,4.1626,4.1589,4.1561,4.1528,4.1506,4.1482,4.1477,4.1476,4.1485,4.1498,4.149,4.146,4.1476,4.1476,4.1475,4.1475,4.1475,4.1878,4.1869,4.184,4.1818,4.1798,4.1776,4.1763,4.1738,4.1717,4.1686,4.1667,4.1642,4.161,4.1564,4.1543,4.1522,4.1512,4.151,4.151,4.151,4.1513,4.1503,4.1516,4.1515,4.1515,4.1515,4.1515,0,4.1899,4.188,4.186,4.1829,4.1812,4.1794,4.1767,4.1753,4.1732,4.1706,4.1684,4.1654,4.1628,4.1593,4.1564,4.1554,4.1542,4.1547,4.1547,4.1542,4.1523,4.1527,4.1557,4.1557,4.1557,4.1557,4.1557,4.1557,4.1908,4.1892,4.1875,4.1847,4.1827,4.1804,4.179,4.177,4.1749,4.1718,4.1697,4.1676,4.1646,4.1614,4.1589,4.1579,4.1569,4.1577,4.1564,4.1547,4.1543,4.1539,4.1543,4.1576,4.1576,4.1584,4.1585,4.1585]}]]